Regional Weather Roundup
Issued by NWS

Home | Current Version | Previous Version | Graphics & Text | Print | Product List | Glossary Off
Versions: 1 2 3 4 5 6 7 8 9 10 11 12 13 14 15 16 17 18 19 20 21 22 23 24 25 26 27 28 29 30 31 32 33 34 35 36 37 38 39 40 41 42 43 44 45 46 47 48 49 50

000
ASUS43 KTOP 111008
RWRKS

WEATHER ROUNDUP FOR KANSAS
NATIONAL WEATHER SERVICE GOODLAND KS
500 AM CDT FRI JUL 11 2014

NOTE:  "FAIR" INDICATES FEW OR NO CLOUDS BELOW 12,000 FEET WITH NO
SIGNIFICANT WEATHER AND/OR OBSTRUCTIONS TO VISIBILITY.

KSZ001>006-013>018-027>032-041>047-111100-
NORTHWEST KANSAS

CITY           SKY/WX    TMP DP  RH WIND       PRES   REMARKS
GOODLAND       PTCLDY    71  53  52 S15       29.96S
HAYS           CLEAR    N/A N/A N/A S3        29.94S
HILL CITY      CLEAR     70  68  93 SE5       29.94S
RUSSELL        CLEAR     70  68  93 S9        29.94R
$$

KSZ061>065-074>080-084>089-111100-
SOUTHWEST KANSAS

CITY           SKY/WX    TMP DP  RH WIND       PRES   REMARKS
DODGE CITY     CLEAR     68  55  63 S7        30.00R
ELKHART          N/A     71  51  49 S12         N/A
GARDEN CITY    CLEAR     65  54  67 S6        29.99R
GREAT BEND     CLEAR     70  66  88 S8        29.95R
LIBERAL        CLEAR     72  50  46 S14       30.02S
PRATT          CLEAR     70  64  83 S13       29.99R
$$

KSZ066>073-081>083-090>101-111100-
SOUTHEAST KANSAS

CITY           SKY/WX    TMP DP  RH WIND       PRES   REMARKS
CHANUTE        PTCLDY    69  66  90 SE8       30.04R
COFFEYVILLE    CLEAR     69  66  90 SE8       30.03S
HUTCHINSON     CLEAR     69  66  90 S10       29.98R
MEDICINE LODGE   N/A     69  68  96 SE5       29.98R
NEWTON         CLEAR     66  61  82 S10       30.02S
PARSONS        PTCLDY    70  66  87 SE6       30.05R
WICHITA INTL   PTCLDY    69  66  90 SE9       29.99R
WICHITA JABRA  CLEAR     69  67  93 S12       29.99R
WICHITA MCCONL CLEAR     69  69 100 SE9       30.00R
WINFIELD       CLEAR     69  68  96 SE8       30.01R
$$

KSZ007>012-019>026-033>040-048>060-102>105-111100-
NORTHEAST KANSAS

CITY           SKY/WX    TMP DP  RH WIND       PRES   REMARKS
CONCORDIA      PTCLDY    69  66  90 SE10      29.97R
EMPORIA        MOCLDY    69  66  90 S13       30.02R
LAWRENCE       MOCLDY    69  66  90 SE8       30.03R
MANHATTAN      CLEAR     70  66  87 S6        29.99R
MARYSVILLE     CLOUDY    70  66  88 SE8       29.98S
OLATHE IND     CLOUDY    68  66  93 SE12      30.06R
OLATHE EXE     MOCLDY    67  65  93 S9        30.05R
SALINA         PTCLDY    71  66  84 SE8       29.96R
TOPEKA BILLARD CLOUDY    71  67  87 SE7       30.02S
TOPEKA FORBES  PTCLDY    70  66  87 SE12      30.02S
$$



USA.gov is the U.S. government's official web portal to all federal, state and local government web resources and services.